Simultaneous Nadir Overpasses (SNOs) Predictions

Prediction of SNOs between GOES-15 and METOP-A Satellite Orbit:

Table of predicted SNOs for the next 14.0 days since TLE Epoch: 12/29/2017
Index Date Time (GOES-15) GOES-15 Lat,Lon METOP-A Lat,Lon Distance(km) Time Diff (sec)
1 12/30/2017 18:27:15 -0.07,-135.18 -0.09,-135.05 15.11 80
2 01/02/2018 06:22:53 0.06,-135.17 0.18,-134.65 58.87 80
3 01/03/2018 18:41:42 -0.05,-135.07 0.89,-139.20 471.19 80
4 01/04/2018 18:23:42 -0.05,-135.04 -0.23,-134.21 94.95 80
5 01/06/2018 06:42:40 0.04,-135.05 -0.79,-138.81 427.47 80
6 01/07/2018 06:19:19 0.04,-135.02 0.33,-133.81 138.19 80
7 01/08/2018 18:38:09 -0.04,-134.92 0.74,-138.36 392.73 80
8 01/09/2018 18:20:08 -0.04,-134.89 -0.38,-133.37 173.06 80
9 01/11/2018 06:39:06 0.03,-134.90 -0.63,-137.97 349.72 80
10 01/12/2018 06:15:45 0.04,-134.86 0.43,-132.96 215.41 80




NCC Satellite Simultaneous Nadir Overpasses (SNOs) Prediction Service
